Regional Weather Roundup
Issued by NWS Newport/Morehead, NC

Current Version | Previous Version | Graphics & Text | Print | Product List | Glossary On
Versions: 1 2 3 4 5 6 7 8 9 10 11 12 13 14 15 16 17 18 19 20 21 22 23 24 25 26 27 28 29 30 31 32 33 34 35 36 37 38 39 40 41 42 43 44 45 46 47 48 49 50
000 ASUS42 KMHX 280812 RWRMHX WEATHER ROUNDUP FOR EASTERN NORTH CAROLINA NATIONAL WEATHER SERVICE NEWPORT/MOREHEAD CITY NC 400 AM EDT SAT MAR 28 2015 NOTE: "FAIR" INDICATES FEW OR NO CLOUDS BELOW 12,000 FEET WITH NO SIGNIFICANT WEATHER AND/OR OBSTRUCTIONS TO VISIBILITY NCZ015>017-031-032-045>047-102-103-280900- NORTH COAST CITY SKY/WX TMP DP RH WIND PRES REMARKS EDENTON MOCLDY 40 37 91 NW8 29.81R ELIZABETH CITY CLOUDY 41 37 87 NW14 29.78S KITTY HAWK CLOUDY 40 38 91 NW7 29.74F FOG MANTEO CLOUDY 41 37 87 N10 29.75F $$ NCZ045>047-081-094-103-104-280900- CENTRAL COAST CITY SKY/WX TMP DP RH WIND PRES REMARKS FRISCO CLOUDY 42 36 79 N10G25 29.75S SWANQUARTER N/A 41 N/A N/A NW10G17 29.77R $$ NCZ095-097-098-100-101-280900- SOUTHERN COAST CITY SKY/WX TMP DP RH WIND PRES REMARKS BEAUFORT CLOUDY 44 40 85 NW16 29.81R CEDAR ISLAND N/A 45 N/A N/A NW25 29.82S JACKSONVILLE CLOUDY 40 37 89 NW8 29.85R PINEY ISLAND CLOUDY N/A N/A N/A NW17 29.79R WILMINGTON MOCLDY 43 39 86 NW10 29.86R $$ NCZ011>013-027>030-043-044-078>080-089-090>093-098-280900- COASTAL PLAIN CITY SKY/WX TMP DP RH WIND PRES REMARKS AHOSKIE CLOUDY 37 36 94 N3 29.83F CLINTON RAIN 42 40 92 NW7 29.89R ELIZABETHTOWN RAIN 44 42 95 CALM 29.87S GOLDSBORO MIX PCPN 41 41 99 W7 29.84R GREENVILLE CLOUDY 39 37 93 N3 29.87R HAVELOCK CLOUDY 43 38 82 NW12 29.83R KENANSVILLE CLOUDY 41 38 90 NW6 29.87R KINSTON PTCLDY 40 38 92 NW3 29.86S NEW BERN CLOUDY 41 36 82 NW12 29.85R RICHLANDS CLOUDY 39 36 87 NW3 29.85S ROCKY MOUNT LGT RAIN 41 37 86 NW15G21 29.85S WASHINGTON MOCLDY 39 37 90 NW3 29.83S WHITEVILLE CLOUDY 45 42 90 CALM 29.87S $$ AMZ130-135-150-152-154-156-158-170-250-252-270-ANZ085-086-088-633-658-670-280900- MARINE OBSERVATIONS STATION/POSITION TIME TEMP WIND PRES WAVE SWELL AIR SEA DIR/SP/G HT/PER HT/PER (UTC) (F) (DEG/KT/KT) (MB) (FT/S) (FT/S) CHESAPEAKE LIGHT 0700 40 330/ 18/ 19 1008.1 64 E VA BEACH 0750 44 56 350/ 27/ 33 1004.8 11/ 8 2/14 DUCK 0706 41 41 350/ 14/ 16 1006.6 2 E DUCK 0711 41 N/A 6/ 7 2/11 10 NE DUCK NOT AVBL OREGON INLET 0706 40 45 340/ 11/ 17 1007.2 HATTERAS CG 0700 45 54 10/ 21/ 28 1007.4 CAPE LOOKOUT 0800 44 330/ 17/ 19 1008.8 BEAUFORT LAB 0706 44 57 340/ 10/ 15 1008.0 27 SE WRIGHTSVLE NOT AVBL 5 SE WRIGHTSVLE 0700 46 56 330/ 17/ 19 1010.4 225 S CAPE HAT 0750 67 69 290/ 23/ 29 1005.5 11/ 8 41 SE CHARLESTON 0750 54 69 330/ 17/ 21 1011.1 5/ 6 2/ 8 $$

USA.gov is the U.S. government's official web portal to all federal, state and local government web resources and services.